Location: Unspecified
(0.0000°N, 0.0000°E)
Time: 18:30:39
(UTC+00:00)

A-11 Canister half - Visible Passes

Search period start: 20 August 2014 00:00
Search period end: 30 August 2014 00:00
Orbit: 1517 x 1683 km, 47.2° (Epoch: 19 August)

Date Brightness Start Highest point End Pass type
(mag) Time Alt. Az. Time Alt. Az. Time Alt. Az.
20 Aug 9.8 18:31:31 10° NNW 18:40:19 34° NE 18:48:09 13° ESE visible
20 Aug 9.4 20:35:29 10° NW 20:45:14 55° SW 20:46:25 52° SSW visible
21 Aug 11.2 05:23:29 10° SSE 05:25:42 11° SE 05:27:55 10° ESE visible
21 Aug 9.4 20:12:28 10° NW 20:22:20 60° SW 20:25:31 44° S visible
22 Aug 9.3 19:49:28 10° NW 19:59:27 65° SW 20:04:41 32° SSE visible
22 Aug 11.2 22:02:37 10° WSW 22:02:57 10° WSW 22:02:57 10° WSW visible
23 Aug 9.3 19:26:29 10° NW 19:36:33 70° SW 19:43:54 21° SSE visible
23 Aug 11.1 21:38:12 10° WSW 21:41:57 13° SW 21:42:10 13° SW visible
24 Aug 9.3 19:03:32 10° NW 19:13:39 76° SW 19:23:09 12° SSE visible
24 Aug 11.0 21:14:14 10° WSW 21:18:58 14° SW 21:21:25 13° SSW visible
25 Aug 9.3 18:40:36 10° NW 18:50:46 82° SW 19:00:47 10° SE visible
25 Aug 11.0 20:50:30 10° W 20:56:00 16° SW 21:00:41 11° SSW visible
26 Aug 10.0 05:28:03 10° SSW 05:36:42 44° SE 05:45:23 10° ENE visible
26 Aug 9.3 18:17:41 10° NW 18:27:52 88° SW 18:37:55 10° SE visible
26 Aug 11.0 20:26:53 10° W 20:33:02 18° SW 20:39:09 10° S visible
27 Aug 10.1 05:05:21 10° SSW 05:13:50 40° SE 05:22:20 10° ENE visible
27 Aug 10.9 20:03:23 10° W 20:10:05 20° SW 20:16:45 10° S visible
28 Aug 10.2 04:42:41 10° SSW 04:50:58 37° SE 04:59:15 10° ENE visible
28 Aug 10.9 19:39:57 10° W 19:47:08 22° SW 19:54:17 10° S visible
29 Aug 10.2 04:20:01 10° SSW 04:28:06 33° SE 04:36:08 10° ENE visible
29 Aug 10.9 19:16:35 10° W 19:24:12 24° SW 19:31:45 10° S visible
